Location: Unspecified
(0.0000°N, 0.0000°E)
Time: 04:24:04
(UTC+00:00)

Vanguard 2 - All Passes

Search period start: 20 October 2014 00:00
Search period end: 30 October 2014 00:00
Orbit: 553 x 2947 km, 32.9° (Epoch: 18 October)

Date Brightness Start Highest point End Pass type
(mag) Time Alt. Az. Time Alt. Az. Time Alt. Az.
20 Oct - 01:04:50 10° N 01:08:38 20° NE 01:13:41 10° E visible
20 Oct - 03:10:46 10° WNW 03:17:13 75° SSW 03:28:26 10° SE visible
20 Oct - 05:21:10 10° WSW 05:29:05 27° SSW 05:40:30 10° SSE visible
20 Oct - 07:36:58 10° SW 07:44:49 16° S 07:53:52 10° SSE daylight
20 Oct - 09:52:36 10° SSW 10:03:20 18° SSE 10:13:53 10° SE daylight
20 Oct - 12:04:41 10° SW 12:20:03 35° SSE 12:31:52 10° E daylight
20 Oct - 14:17:19 10° SW 14:33:21 81° SE 14:43:07 10° ENE daylight
20 Oct - 16:33:22 10° W 16:43:23 30° NW 16:50:01 10° NNE daylight
21 Oct - 01:23:00 10° NNW 01:27:38 34° NE 01:34:33 10° ESE visible
21 Oct - 03:30:15 10° WNW 03:36:47 51° SSW 03:47:45 10° SE visible
21 Oct - 05:42:05 10° WSW 05:49:30 21° SSW 05:59:27 10° SSE daylight
21 Oct - 07:58:35 10° SSW 08:06:06 15° S 08:14:29 10° SSE daylight
21 Oct - 10:12:10 10° SSW 10:24:26 22° SSE 10:36:04 10° ESE daylight
21 Oct - 12:23:48 10° SW 12:40:15 45° SSE 12:52:18 10° E daylight
21 Oct - 14:37:03 10° WSW 14:52:46 77° NW 15:02:19 10° NE daylight
21 Oct - 16:54:57 10° W 17:02:33 20° NW 17:08:07 10° N daylight
22 Oct - 01:41:39 10° NW 01:46:40 57° NE 01:54:44 10° ESE visible
22 Oct - 03:50:07 10° W 03:56:35 35° SSW 04:06:49 10° SE visible
22 Oct - 06:03:31 10° SW 06:10:10 17° S 06:18:28 10° SSE daylight
22 Oct - 08:19:30 10° SSW 08:27:29 15° S 08:36:10 10° SE daylight
22 Oct - 10:31:24 10° SSW 10:45:15 27° SSE 10:57:53 10° ESE daylight
22 Oct - 12:42:59 10° SW 13:00:13 58° SSE 13:12:20 10° ENE daylight
22 Oct - 14:57:08 10° WSW 15:12:02 57° NW 15:21:16 10° NE daylight
22 Oct - 17:17:50 10° WNW 17:21:55 13° NW 17:25:20 10° NNW daylight
22 Oct - 23:56:28 10° NNE 23:57:44 11° NE 23:59:06 10° NE night (unlit)
23 Oct - 02:00:40 10° WNW 02:05:51 86° SW 02:14:26 10° SE visible
23 Oct - 04:10:25 10° WSW 04:16:37 25° SSW 04:25:39 10° SSE visible
23 Oct - 06:25:22 10° SSW 06:31:03 14° S 06:37:45 10° SSE daylight
23 Oct - 08:39:35 10° SSW 08:48:47 17° SSE 08:58:39 10° SE daylight
23 Oct - 10:50:29 10° SSW 11:05:46 34° SSE 11:19:11 10° E daylight
23 Oct - 13:02:20 10° SW 13:19:58 74° SE 13:32:00 10° ENE daylight
23 Oct - 15:17:41 10° WSW 15:31:14 42° NW 15:40:00 10° NNE daylight
24 Oct - 00:13:29 10° N 00:16:50 21° NE 00:21:04 10° E night (unlit)
24 Oct - 02:20:02 10° WNW 02:25:16 53° SSW 02:33:46 10° SE visible
24 Oct - 04:31:17 10° WSW 04:36:51 19° SSW 04:44:19 10° SSE visible
24 Oct - 06:47:10 10° SSW 06:52:09 13° S 06:57:47 10° SSE daylight
24 Oct - 08:59:03 10° SSW 09:09:53 20° SSE 09:21:18 10° ESE daylight
24 Oct - 11:09:32 10° SW 11:26:01 42° SSE 11:39:57 10° E daylight
24 Oct - 13:21:54 10° SW 13:39:32 87° NW 13:51:22 10° NE daylight
24 Oct - 15:38:48 10° W 15:50:28 30° NW 15:58:28 10° NNE daylight
25 Oct - 00:31:49 10° NNW 00:35:52 39° NE 00:41:30 10° ESE night (unlit)
25 Oct - 02:39:48 10° W 02:44:55 34° SSW 02:52:46 10° SE visible
25 Oct - 04:52:50 10° SW 04:57:18 14° S 05:02:45 10° SSE visible
25 Oct - 07:08:09 10° SSW 07:13:22 13° S 07:19:10 10° SSE daylight
25 Oct - 09:18:11 10° SSW 09:30:42 24° SSE 09:43:38 10° ESE daylight
25 Oct - 11:28:37 10° SW 11:46:02 54° SSE 12:00:15 10° ENE daylight
25 Oct - 13:41:46 10° WSW 13:58:57 69° NW 14:10:29 10° NE daylight
25 Oct - 16:00:42 10° W 16:09:51 21° NW 16:16:38 10° N daylight
26 Oct - 00:50:40 10° NW 00:54:58 76° NE 01:01:19 10° ESE night (unlit)
26 Oct - 03:00:03 10° WSW 03:04:46 22° SSW 03:11:27 10° SSE visible
26 Oct - 05:15:28 10° SSW 05:17:59 11° S 05:20:44 10° S visible
26 Oct - 07:28:00 10° SSW 07:34:33 14° SSE 07:41:53 10° SE daylight
26 Oct - 09:37:09 10° SSW 09:51:13 31° SSE 10:05:25 10° E daylight
26 Oct - 11:47:50 10° SW 12:05:52 68° SE 12:20:09 10° ENE daylight
26 Oct - 14:02:01 10° WSW 14:18:18 52° NW 14:29:23 10° NE daylight
26 Oct - 16:23:42 10° WNW 16:29:28 14° NW 16:34:13 10° N daylight
26 Oct - 23:04:08 10° N 23:06:05 13° NE 23:08:08 10° ENE night (unlit)
27 Oct - 01:09:54 10° WNW 01:14:14 58° SSW 01:20:40 10° SE visible
27 Oct - 03:21:00 10° SW 03:24:50 15° SSW 03:29:43 10° SSE visible
27 Oct - 07:47:10 10° SSW 07:55:34 17° SSE 08:05:05 10° SE daylight
27 Oct - 09:56:05 10° SSW 10:11:27 39° SSE 10:26:36 10° E daylight
27 Oct - 12:07:13 10° SW 12:25:31 84° SE 12:39:43 10° ENE daylight
27 Oct - 14:22:47 10° W 14:37:40 39° NW 14:48:05 10° NNE daylight
27 Oct - 23:21:54 10° NNW 23:25:15 26° NE 23:29:07 10° E night (unlit)
28 Oct - 01:29:35 10° W 01:33:44 33° SSW 01:39:38 10° SE visible
28 Oct - 03:43:32 10° SSW 03:45:06 11° S 03:46:46 10° S visible
28 Oct - 08:06:03 10° SSW 08:16:20 21° SSE 08:28:02 10° ESE daylight
28 Oct - 10:15:03 10° SW 10:31:28 49° SSE 10:47:15 10° ENE daylight
28 Oct - 12:26:52 10° WSW 12:45:04 78° NW 12:59:01 10° NE daylight
28 Oct - 14:44:09 10° W 14:57:08 29° NW 15:06:36 10° NNE daylight
28 Oct - 23:40:32 10° NW 23:44:23 54° NE 23:49:05 10° ESE night (unlit)
29 Oct - 01:49:49 10° WSW 01:53:25 20° SSW 01:58:09 10° SSE visible
29 Oct - 06:20:24 10° SSE 06:20:53 10° SSE 06:21:22 10° SSE daylight
29 Oct - 08:24:49 10° SSW 08:36:47 26° SSE 08:50:24 10° ESE daylight
29 Oct - 10:34:07 10° SW 10:51:17 62° SE 11:07:27 10° ENE daylight
29 Oct - 12:46:51 10° WSW 13:04:33 62° NW 13:18:05 10° NE daylight
29 Oct - 15:06:16 10° WNW 15:16:48 21° NW 15:24:54 10° N daylight
29 Oct - 23:59:39 10° WNW 00:00:15 14° WNW 00:00:00 12° WNW night (unlit)
